CZ-6A DEB, 54902

Orbit data source: Space-Track

CZ-6A DEB, 54902 is space debris in SSO originally from a launch on Fri, 11 Nov 2022 UTC launched from the Taiyaun Space Center, China (TSC). Debris objects in space refer to the collection of defunct objects orbiting the Earth. Examples of debris include non-operational satellites, rocket bodies, and fragments generated from explosions, collisions, or faulty payload assembly.

Loading next visibility...
Identifier
54902, 2022-151QP
Orbit
SSO
Country
Flag of CNCN / PRC
Related business
Manufacturer
SAST
Mission
Spacecraft
Bus & Motor
Unknown
Mass
Unknown
Launch date (UTC)
2022-11-11 (4 years ago)
Launch vehicle
Unknown
Launch site
Taiyaun Space Center, China (TSC)
Object type
Payload
Rocket body
Debris
Shape & HBR
Unknown shape, 0.1 m
Radar Cross Section
Medium (>0.1 m² and <1 m²)

Expand to show TLE details & history
Last TLE update: 6 days ago

TLE from 6 days ago
0 CZ-6A DEB
1 54902U 22151QP  26260.19599151  .00045415  00000-0  30200-2 0  9993
2 54902  98.6059 347.9984 0029504 288.8859  70.9167 15.06647507204592
Epoch: 2026-09-17T04:42Z
TLE epoch observation values (Epoch: 2026-09-17T04:42:13.666Z)
Latitude
-0.00002°
Longitude
-78.69524°
Altitude
542.861 km
Speed
7.594 km/s
True Right ascension
23h 11m 59s
True Declination
0° 00' 00"
Sunlit
Object was in full shadow at epoch
Visualization orbit readout
Latitude
Unknown
Longitude
Unknown
Altitude
Unknown
Speed
Unknown
Apparent Right ascension
Unknown
Apparent Declination
Unknown
Sunlit
N/A
Visualization observer readout
Local Sidereal Time
13:41:57
Azimuth
Unknown
Elevation
Unknown
Doppler factor
Unknown
Orbital elements
Apogee altitude
563.913 km
Perigee altitude
523.07 km
Semi-major axis
6,921.629 km
Eccentricity
0.00295
Inclination
98.6059°
RAAN
347.9984°
Arg. of periapsis
288.8859°
True anomaly
71.23659°
Mean anomaly
70.9167°
Eccentric anomaly
71.07661°
Mean motion
3.76904 °/min
Orbital period
95.52 mins
BSTAR
0.00302
Loading maneuver chart data...
Computing Atmospheric mass density...
Loading historical data...
Loading historical data...
Loading historical data...
Loading historical data...
Loading historical data...
Loading historical data...
Loading historical data...

Documentation

Showing up to 5 results
|